Terminal Aerodrome Forecast
Issued by NWS Pittsburgh, PA

Current Version | Previous Version | Text Only | Print | Product List | Glossary Off
Versions: 1 2 3 4 5 6 7 8 9 10 11 12 13 14 15 16 17 18 19 20 21 22 23 24 25 26 27 28 29 30 31 32 33 34 35 36 37

000
FTUS41 KPBZ 221412 AAB
TAFPIT
TAF AMD
KPIT 221412Z 2214/2318 23008KT P6SM BKN040
      TEMPO 2214/2215 VRB15G25KT 4SM -TSRA BKN040CB
     FM222000 24010KT P6SM VCTS BKN040CB
     FM230000 25005KT P6SM SCT040
     FM230800 VRB03KT 4SM BR SCT080
     FM231300 33004KT P6SM SCT050=

USA.gov is the U.S. government's official web portal to all federal, state and local government web resources and services.